Погода в Безменове

Россия / Новосибирская область     54°04′57″N   83°23′33″E
темп.,
°C
ветер,
м/с
пор.,
м/с
влажн.,
%
обл.,
%
осадки,
мм/ч
давл.,
гПа
погр.,
м
23 мая, пн
пн2301:00+16з1016839 2.5 1007645
04:00+11зсз7157062 0.0 1014730
07:00+10зюз3875100 0.0 1019404
10:00+14юз4547100 0.0 1021981
13:00+18юз45310 0.0 10221726
16:00+20юз34270 0.0 10212159
19:00+20ююз12300 0.0 10211567
22:00+13юв22480 0.0 102211
24 мая, вт
вт2401:00+10ююв33730 0.0 102347
04:00+8в22770 0.0 102317
07:00+10всв24720 0.0 1022110
10:00+17всв464480 0.0 1020654
13:00+21св5634100 0.0 10181268
16:00+24св563188 0.0 10171504
19:00+22св4744100 0.0 1016367
22:00+16ссв51157100 0.0 1016183
25 мая, ср
ср2501:00+16ссв51351100 0.0 1015291
04:00+14с51157100 0.0 1015197
07:00+14с5126295 0.0 1015261
10:00+19ссв61351100 0.0 1015624
13:00+21ссв61051100 0.0 1014783
16:00+23св71045100 0.0 10141030
19:00+22ссв6114898 0.0 1014658
22:00+17ссв4106294 0.0 1015168
26 мая, чт
чт2601:00+16ссв4136163 0.0 1015247
04:00+15ссв5146527 0.0 1015254
07:00+16св615700 0.0 1016406
10:00+22св710510 0.0 1015810
13:00+25св78400 0.0 10141295
16:00+26всв67355 0.0 10131344
19:00+24св57444 0.0 1013392
22:00+16св410601 0.0 1013161
27 мая, пт
пт2701:00+13св4105984 0.0 1013160
04:00+12св38620 0.0 1012109
07:00+13св37650 0.0 1012161
10:00+20ссв34440 0.0 1012496
13:00+25ссв34320 0.0 1011971
16:00+26ссв34310 0.0 10111235
19:00+25с354326 0.0 1011262
22:00+19св4757100 0.0 1011110